Wind_Speed
22 23 25 27 29 30 28 26 26 27 27 26 25 25 24 23 22 21 18 15 11 7 9 1 4 5 8 12 17 12 11 12 15 15 18 14 19 18 16 24 21 22 17
21 21 23 25 27 28 27 26 27 27 28 27 25 24 24 25 25 22 19 17 14 10 8 4 7 7 10 9 10 10 10 11 16 17 13 14 14 19 12 13 15 22 19
20 19 21 23 25 26 27 27 25 25 25 26 25 25 25 25 21 17 19 17 15 13 10 6 4 3 5 6 5 6 15 14 14 8 13 14 10 14 10 17 16 15 24
18 18 19 21 23 25 26 27 26 24 23 23 24 25 26 24 23 24 22 20 17 16 13 10 8 5 3 8 8 7 10 13 11 14 11 14 15 17 15 16 14 17 19
17 17 18 19 21 24 24 25 25 25 25 24 23 22 22 23 24 25 23 23 20 18 13 13 8 7 5 5 3 5 10 11 11 9 12 17 16 17 17 16 14 10 11
14 16 16 17 20 22 23 23 23 25 26 26 26 25 25 24 23 23 23 21 19 20 16 7 11 8 6 3 6 3 6 7 10 16 16 13 12 9 7 14 11 9 10
12 13 14 15 17 20 22 22 22 23 24 25 27 27 26 25 24 23 24 22 18 20 19 17 10 6 5 5 4 6 2 4 4 5 10 9 6 2 3 5 6 7 9
10 11 12 14 15 17 19 21 22 23 23 24 24 24 26 26 24 21 20 21 19 21 20 18 12 7 4 4 4 4 3 4 6 7 8 7 3 2 4 7 8 8 9
10 10 11 13 15 17 20 18 20 23 24 25 27 26 26 25 25 22 20 20 20 21 21 20 14 10 6 5 6 5 3 3 4 7 7 6 4 3 4 6 5 6 7
10 10 11 13 15 18 21 21 22 23 25 27 28 28 27 24 23 22 20 17 18 20 21 23 17 16 10 8 7 7 6 5 6 7 8 9 9 7 6 5 6 6 7
11 10 11 13 15 17 18 20 23 23 25 25 27 27 25 23 21 21 20 18 15 17 21 20 20 15 15 9 6 8 5 5 7 7 8 8 7 6 8 8 7 5 6
12 11 11 12 15 17 18 19 15 21 24 23 24 27 24 23 20 18 18 18 14 13 18 20 20 17 16 14 10 7 5 5 5 6 6 5 4 4 4 5 5 6 5
12 13 13 14 15 17 17 17 19 19 21 20 23 25 24 23 21 19 17 17 16 10 11 14 18 15 15 14 12 10 9 8 7 6 6 6 6 6 8 8 8 6 3
12 12 13 14 16 17 18 16 17 19 21 19 21 21 22 23 20 20 17 15 15 12 8 9 9 11 11 12 12 12 10 9 8 8 7 6 7 9 9 8 7 7 6
13 13 14 14 15 16 17 16 17 19 19 20 21 23 21 21 22 22 19 16 13 12 12 8 7 8 9 9 9 10 11 10 10 10 10 8 8 7 8 6 5 5 6
13 13 14 14 15 15 15 15 18 18 18 20 21 21 21 20 20 20 18 17 15 12 10 11 7 3 3 4 6 7 6 7 7 8 8 7 8 9 6 5 4 4 4
13 13 13 14 15 15 15 15 18 18 19 20 20 21 20 20 18 18 18 16 14 14 13 10 8 8 2 2 1 6 5 7 3 7 6 3 3 4 3 4 7 6 5
14 14 13 14 15 15 16 16 17 17 17 19 21 22 21 20 18 16 17 18 18 15 13 12 10 8 6 2 2 3 1 2 1 2 4 6 3 0 0 1 2 4 5
14 13 13 12 14 16 16 16 17 18 19 19 20 22 22 21 19 16 15 14 15 15 15 13 12 10 8 5 4 6 6 6 3 4 4 3 4 5 3 5 4 3 2
13 13 13 12 13 15 16 17 18 19 20 19 20 20 20 19 18 16 14 13 13 14 14 13 12 11 9 8 7 6 9 8 6 6 4 5 6 6 7 9 7 4 2
12 12 12 12 13 15 17 17 17 19 20 20 21 21 20 18 17 15 13 12 11 11 12 12 13 11 10 9 8 7 6 11 11 10 10 8 6 8 11 10 12 10 5
11 11 12 13 16 18 17 18 18 19 19 20 20 20 20 19 18 16 15 13 13 12 11 11 10 10 11 10 9 7 6 6 9 12 12 11 10 10 9 5 8 9 7
9 10 12 14 13 16 16 17 17 18 19 20 21 21 21 20 19 19 17 15 13 12 12 11 11 10 10 9 10 9 7 6 5 7 12 7 6 5 4 4 8 7 8
8 9 11 11 14 16 17 17 18 19 20 22 23 23 23 22 21 19 18 17 15 14 12 12 11 11 10 9 9 8 7 6 6 4 11 11 6 3 5 1 6 5 6
7 9 11 12 13 15 16 18 19 21 23 24 25 24 23 22 22 20 19 18 16 14 13 12 11 11 12 10 9 8 7 6 6 10 9 15 11 9 9 4 7 6 9
8 9 10 12 13 14 16 18 20 22 24 24 24 24 23 22 22 22 21 18 16 14 13 11 11 11 11 11 10 10 7 6 6 8 10 11 13 12 11 6 10 11 9
Wind_Direction
359 2 6 5 6 9 10 14 17 18 16 17 16 16 18 19 18 17 15 16 17 23 338 266 294 284 262 251 240 251 243 230 234 237 240 239 231 244 250 248 243 209 246
3 6 9 9 8 12 15 16 18 16 17 20 21 22 20 20 16 14 19 20 20 21 25 344 264 267 282 250 221 221 236 221 226 232 234 233 224 211 208 226 221 224 239
5 8 11 10 10 14 17 17 15 14 18 20 20 23 18 11 15 10 8 14 13 14 11 3 350 317 250 269 223 249 240 237 236 231 231 233 244 228 235 242 219 216 200
4 8 11 11 12 16 19 19 18 16 17 17 20 19 15 16 18 18 15 14 12 12 6 3 6 4 245 232 255 261 231 225 232 220 220 246 237 239 256 259 251 249 253
2 8 10 11 12 16 19 21 20 21 21 20 17 14 12 16 18 18 16 18 19 14 24 355 2 12 25 145 167 82 163 168 191 216 220 220 228 247 251 272 239 269 246
0 8 7 11 12 12 13 18 22 25 25 24 21 18 14 11 13 17 16 14 13 15 14 0 352 17 37 135 173 171 134 148 163 183 201 208 220 239 238 234 242 229 221
358 4 5 8 9 8 7 10 14 21 25 24 20 19 17 12 9 11 16 19 21 20 22 16 19 32 60 67 202 205 158 152 190 143 190 184 178 197 242 212 209 239 243
356 358 2 3 2 3 2 359 4 13 19 21 20 18 18 17 13 10 16 20 21 17 16 19 20 34 43 101 102 113 129 202 216 225 229 232 217 215 263 253 235 229 235
354 350 355 356 353 354 353 356 2 5 9 12 12 13 13 17 17 14 20 22 21 19 17 27 36 36 44 89 103 98 97 63 177 191 181 180 160 160 188 209 196 187 203
350 346 349 347 346 349 350 357 357 359 1 1 1 3 6 8 14 13 15 22 30 32 27 31 35 34 45 84 82 102 104 106 125 148 154 159 168 186 193 165 155 168 186
345 345 342 338 341 344 351 353 354 350 357 354 353 355 1 5 9 10 12 24 28 35 37 29 32 37 35 47 79 90 100 121 140 152 153 135 137 150 166 174 160 168 181
343 340 335 332 335 340 345 344 340 347 345 348 349 352 360 5 6 11 9 11 18 33 45 26 28 41 44 46 50 59 74 100 115 118 114 121 141 145 157 187 183 190 179
344 340 336 333 332 335 338 343 344 344 344 354 348 352 359 5 4 7 13 10 15 31 50 43 23 45 40 51 55 61 66 76 81 74 79 97 113 122 130 130 124 128 145
342 342 339 334 330 331 334 336 339 345 346 348 353 357 358 1 5 2 5 14 10 14 39 45 22 32 45 47 55 63 75 88 96 102 100 99 106 116 121 122 120 123 123
340 342 341 337 330 330 328 335 339 341 348 350 353 356 359 0 1 4 3 5 11 11 14 36 47 35 52 48 47 70 62 78 82 86 90 100 106 109 94 94 97 96 79
338 338 340 339 336 333 334 333 337 344 347 350 351 355 356 358 360 3 5 6 2 5 17 8 4 40 47 78 50 43 81 68 81 72 87 92 101 89 77 80 83 87 74
334 335 334 338 342 344 344 342 341 345 348 350 352 353 358 357 359 1 4 5 11 6 3 0 2 2 315 159 159 59 63 96 76 103 116 126 125 112 56 29 40 24 34
333 335 334 337 342 349 352 348 348 351 349 350 352 354 355 357 357 358 359 360 2 4 3 360 356 355 0 274 191 184 173 87 165 108 148 154 166 213 251 120 1 7 13
332 333 336 335 341 346 350 352 356 355 355 354 352 350 349 350 351 353 355 358 1 0 0 1 359 354 346 328 268 221 222 236 237 187 225 235 278 255 260 277 290 307 355
331 336 341 338 339 340 343 347 348 349 348 350 350 350 348 348 347 347 349 352 355 356 357 357 357 353 349 339 317 277 237 225 228 233 228 266 238 264 295 278 232 227 268
326 333 342 343 344 342 339 342 342 343 344 347 348 350 350 347 344 341 339 339 343 345 351 353 351 352 350 345 333 316 288 238 233 236 245 249 256 281 288 280 223 224 235
326 332 339 344 342 337 336 340 343 343 345 347 348 348 346 344 341 338 336 333 333 334 336 342 346 347 344 341 337 327 316 290 250 241 230 234 274 301 309 237 201 215 208
326 328 335 338 341 345 344 346 346 344 345 346 347 345 341 340 338 338 335 330 324 322 322 328 335 337 335 334 332 326 319 303 278 274 213 200 251 335 357 218 207 213 206
321 322 327 337 339 342 348 350 346 346 345 343 342 340 338 336 335 333 331 327 321 318 315 313 318 323 324 327 329 324 311 305 277 259 197 194 227 233 223 258 194 209 196
331 339 349 352 350 346 344 345 345 345 344 341 339 337 336 335 333 331 330 325 319 312 309 307 308 313 317 317 321 323 308 290 264 226 230 196 213 197 198 237 180 176 166
340 348 352 350 348 345 344 343 344 343 342 340 337 335 337 340 339 336 332 328 320 312 307 305 305 307 312 314 316 319 311 283 256 212 178 208 203 197 177 221 164 166 174
Height
3123 3118 3114 3109 3103 3097 3090 3084 3078 3072 3066 3060 3055 3050 3044 3040 3035 3030 3026 3024 3021 3019 3016 3014 3015 3014 3014 3015 3017 3019 3021 3023 3024 3026 3028 3029 3031 3035 3036 3038 3043 3044 3046
3123 3119 3115 3110 3105 3098 3091 3085 3079 3074 3068 3063 3057 3052 3048 3042 3037 3033 3029 3026 3022 3020 3018 3016 3015 3014 3014 3013 3015 3016 3016 3018 3020 3023 3025 3027 3028 3030 3032 3035 3037 3040 3045
3123 3119 3115 3111 3106 3100 3093 3087 3082 3076 3071 3065 3060 3055 3050 3045 3039 3035 3030 3027 3023 3020 3018 3016 3015 3013 3013 3013 3013 3013 3013 3014 3017 3020 3022 3024 3025 3028 3028 3031 3032 3037 3040
3124 3120 3115 3111 3107 3101 3095 3089 3084 3079 3073 3068 3062 3057 3052 3047 3043 3037 3032 3027 3024 3020 3017 3015 3013 3012 3011 3011 3011 3011 3011 3012 3015 3018 3020 3022 3023 3025 3027 3029 3030 3031 3033
3124 3120 3116 3112 3108 3102 3097 3092 3087 3081 3075 3070 3065 3060 3055 3050 3045 3040 3034 3029 3025 3021 3018 3014 3013 3011 3010 3009 3010 3011 3009 3011 3014 3015 3017 3019 3021 3023 3024 3026 3028 3029 3030
3123 3119 3116 3112 3108 3104 3099 3094 3089 3084 3078 3073 3068 3062 3057 3052 3047 3042 3037 3032 3027 3023 3019 3016 3013 3012 3011 3009 3010 3011 3011 3012 3013 3013 3015 3017 3020 3022 3023 3024 3024 3026 3029
3122 3119 3116 3112 3108 3105 3101 3096 3091 3086 3080 3075 3070 3065 3060 3054 3048 3043 3039 3034 3030 3025 3021 3017 3014 3012 3011 3011 3010 3011 3013 3014 3015 3015 3016 3018 3019 3020 3022 3023 3025 3026 3025
3120 3118 3115 3112 3108 3104 3101 3097 3092 3086 3081 3077 3072 3067 3062 3056 3051 3045 3041 3036 3032 3027 3023 3019 3015 3013 3012 3012 3011 3011 3012 3013 3014 3015 3016 3017 3018 3019 3020 3021 3022 3022 3024
3120 3117 3114 3111 3108 3105 3101 3096 3092 3088 3083 3077 3073 3068 3063 3058 3053 3048 3043 3039 3035 3031 3025 3020 3017 3015 3013 3013 3012 3012 3012 3012 3012 3013 3014 3015 3016 3017 3018 3019 3020 3021 3022
3119 3116 3114 3111 3108 3104 3100 3096 3092 3087 3083 3078 3073 3069 3064 3059 3054 3050 3046 3041 3037 3033 3028 3023 3020 3017 3015 3014 3014 3014 3013 3013 3013 3013 3014 3015 3016 3017 3018 3018 3020 3022 3023
3118 3115 3112 3110 3107 3104 3100 3096 3092 3088 3084 3080 3075 3069 3065 3060 3055 3051 3047 3043 3039 3035 3032 3028 3024 3020 3018 3016 3015 3015 3015 3014 3014 3015 3016 3016 3017 3018 3019 3020 3020 3022 3023
3116 3114 3111 3109 3106 3103 3100 3096 3093 3088 3085 3080 3075 3070 3065 3061 3056 3052 3048 3044 3040 3037 3034 3031 3028 3024 3022 3019 3017 3016 3016 3016 3016 3017 3017 3018 3018 3019 3019 3020 3020 3021 3022
3115 3113 3110 3107 3105 3102 3099 3095 3092 3088 3084 3079 3075 3070 3065 3062 3058 3053 3049 3045 3041 3038 3035 3033 3031 3028 3025 3023 3021 3020 3019 3018 3018 3017 3018 3018 3019 3019 3020 3021 3021 3022 3022
3113 3111 3108 3106 3103 3100 3097 3094 3091 3087 3082 3079 3074 3069 3065 3061 3058 3054 3050 3045 3042 3039 3036 3035 3033 3031 3029 3026 3025 3024 3023 3022 3021 3021 3020 3020 3021 3021 3022 3023 3023 3023 3024
3112 3109 3107 3104 3101 3098 3095 3092 3089 3085 3082 3078 3073 3069 3064 3060 3056 3052 3050 3047 3043 3040 3038 3035 3034 3033 3031 3029 3028 3027 3026 3025 3025 3024 3024 3024 3024 3024 3024 3024 3024 3024 3024
3110 3107 3105 3102 3099 3097 3094 3090 3087 3083 3080 3076 3072 3068 3064 3059 3055 3052 3049 3046 3044 3041 3038 3036 3034 3033 3032 3031 3030 3029 3028 3027 3027 3027 3027 3027 3027 3027 3027 3027 3026 3026 3026
3107 3105 3103 3101 3098 3095 3091 3089 3085 3082 3078 3075 3071 3067 3063 3059 3055 3051 3049 3046 3043 3041 3039 3037 3034 3032 3031 3031 3030 3029 3029 3028 3029 3028 3028 3028 3028 3028 3029 3028 3027 3026 3026
3105 3103 3101 3099 3096 3093 3090 3087 3084 3081 3078 3074 3070 3066 3062 3058 3055 3051 3048 3045 3043 3041 3038 3036 3034 3033 3031 3029 3029 3029 3029 3029 3028 3028 3028 3028 3028 3028 3028 3028 3028 3028 3027
3104 3102 3100 3097 3094 3091 3089 3086 3083 3080 3077 3073 3070 3065 3061 3057 3054 3051 3048 3045 3042 3040 3038 3035 3033 3031 3030 3029 3027 3027 3027 3027 3027 3027 3027 3027 3028 3028 3028 3027 3027 3027 3027
3102 3100 3098 3096 3093 3090 3088 3085 3082 3079 3076 3072 3068 3065 3060 3057 3053 3050 3047 3045 3042 3039 3036 3034 3032 3030 3028 3026 3025 3025 3024 3025 3025 3025 3026 3026 3026 3026 3026 3025 3026 3026 3027
3100 3098 3096 3094 3092 3089 3087 3084 3081 3078 3074 3070 3066 3063 3059 3055 3051 3048 3045 3043 3040 3038 3035 3033 3031 3028 3026 3024 3023 3022 3021 3021 3021 3022 3022 3023 3023 3023 3023 3022 3022 3024 3025
3098 3096 3095 3092 3090 3087 3085 3082 3079 3076 3072 3068 3064 3060 3057 3053 3049 3046 3043 3041 3038 3036 3034 3031 3029 3026 3024 3022 3021 3019 3018 3018 3017 3018 3019 3020 3020 3020 3018 3018 3019 3021 3023
3096 3095 3093 3091 3089 3086 3084 3080 3077 3074 3070 3067 3063 3059 3055 3051 3047 3044 3041 3038 3036 3033 3031 3029 3026 3024 3022 3020 3018 3016 3015 3014 3014 3013 3014 3017 3017 3017 3016 3017 3018 3019 3021
3095 3093 3092 3090 3087 3085 3082 3079 3076 3072 3068 3065 3061 3056 3052 3048 3044 3041 3038 3035 3032 3030 3028 3026 3024 3022 3019 3018 3016 3014 3013 3011 3010 3010 3011 3013 3015 3016 3015 3015 3017 3018 3018
3093 3092 3090 3088 3086 3084 3081 3077 3074 3070 3066 3062 3058 3053 3049 3045 3041 3037 3034 3031 3028 3026 3024 3022 3021 3019 3017 3015 3013 3011 3009 3009 3007 3008 3008 3010 3012 3014 3013 3014 3015 3017 3018
3092 3091 3089 3087 3085 3082 3079 3076 3072 3068 3064 3059 3055 3051 3046 3041 3037 3033 3030 3027 3024 3022 3020 3019 3017 3016 3014 3013 3011 3008 3006 3005 3004 3005 3007 3008 3010 3012 3012 3013 3014 3015 3017